Regional Weather Roundup
Issued by NWS Little Rock, AR

Home | Current Version | Previous Version | Text Only | Print | Product List | Glossary Off
Versions: 1 2 3 4 5 6 7 8 9 10 11 12 13 14 15 16 17 18 19 20 21 22 23 24 25 26 27 28 29 30 31 32 33 34 35 36 37 38 39 40 41 42 43 44 45 46 47 48 49 50

598
ASUS44 KLZK 231605
RWRLZK

WEATHER ROUNDUP FOR ARKANSAS
NATIONAL WEATHER SERVICE LITTLE ROCK AR
1100 AM CDT WED AUG 23 2017

NOTE: "FAIR" INDICATES FEW OR NO CLOUDS BELOW 12,000 FEET WITH NO
SIGNIFICANT WEATHER AND/OR OBSTRUCTIONS TO VISIBILITY.

ARZ001-003-010-029-231700-
NORTHWEST ARKANSAS

CITY           SKY/WX    TMP DP  RH WIND       PRES   REMARKS
FAYETTEVILLE   CLOUDY    76  67  73 E8        30.11S
FORT SMITH     CLOUDY    77  73  87 NE7       30.06S
HARRISON       CLOUDY    70  61  73 NE7       30.15R
BENTONVILLE    PTSUNNY   75  61  60 E8        30.13R
ROGERS         MOSUNNY   74  62  66 E10       30.13S
HIGHFILL       PTSUNNY   76  63  64 E6        30.13R
SPRINGDALE     PTSUNNY   73  64  73 E8        30.14R
$$

ARZ004-005-016-231700-
NORTH CENTRAL ARKANSAS

CITY           SKY/WX    TMP DP  RH WIND       PRES   REMARKS
FLIPPIN        CLOUDY    73  57  56 NE7       30.11S
MTN HOME       CLOUDY    71  60  68 E6        30.13R
$$

ARZ040-041-231700-
WEST CENTRAL ARKANSAS

CITY           SKY/WX    TMP DP  RH WIND       PRES   REMARKS
MENA           CLOUDY    81  79  94 CALM      30.06S HX  89
MOUNT IDA      MOSUNNY   78  69  73 E3        30.04F
$$

ARZ009-017-025-026-028-231700-
NORTHEAST ARKANSAS

CITY           SKY/WX    TMP DP  RH WIND       PRES   REMARKS
CORNING        FAIR      75  64  69 NE10      30.11S
JONESBORO      CLOUDY    76  68  76 NE10      30.07F
NEWPORT        CLOUDY    75  67  76 N12       30.08S
WALNUT RIDGE   CLOUDY    75  63  64 N12       30.09S
BLYTHEVILLE    MOSUNNY   79  65  62 E9        30.08S
NW BLYTHEVILLE MOSUNNY   77  64  65 E7        30.08S
$$

ARZ022-023-033-042-044-231700-
CENTRAL ARKANSAS

CITY           SKY/WX    TMP DP  RH WIND       PRES   REMARKS
LITTLE ROCK    CLOUDY    81  74  79 NE7       30.05S HX  86
N LITTLE ROCK    N/A     78  72  82 N6        30.06R
JACKSONVILLE   CLOUDY    80  71  74 NE8       30.05R
CONWAY           N/A     81  73  78 NE9       30.04S HX  85
SEARCY         CLOUDY    80  70  71 NE10      30.07F
HOT SPRINGS    CLOUDY    81  71  71 E7        30.05S HX  85
RUSSELLVILLE   CLOUDY    77  71  82 NE10      30.07S
CLINTON        CLOUDY    75  68  78 CALM      30.09S
$$

ARZ036-231700-
EAST ARKANSAS

CITY           SKY/WX    TMP DP  RH WIND       PRES   REMARKS
WEST MEMPHIS   MOSUNNY   82  71  69 NE12      30.03F HX  86
$$

ARZ050-053-066-070-073-231700-
SOUTHWEST ARKANSAS

CITY           SKY/WX    TMP DP  RH WIND       PRES   REMARKS
ARKADELPHIA    FAIR      80  73  79 NE7       30.04S
CAMDEN         CLOUDY    84  72  65 NE5       30.02S HX  89
TEXARKANA      CLOUDY    80  73  79 VRB5      30.03S
EL DORADO      PTSUNNY   85  74  69 N8        30.03R HX  92
DE QUEEN       CLOUDY    80  75  84 E5        30.02R HX  85
$$

ARZ056-057-069-231700-
SOUTHEAST ARKANSAS

CITY           SKY/WX    TMP DP  RH WIND       PRES   REMARKS
PINE BLUFF     MOSUNNY   84  72  67 VRB6      30.03F HX  89
MONTICELLO     PTSUNNY   84  74  71 NE9       30.02S HX  91

$$






USA.gov is the U.S. government's official web portal to all federal, state and local government web resources and services.